SKY773 RJFF-RJCC

Flight info

Callsign SKY773
Flight time N/A
Altitude 37000
Route BUTUR Y453 MARCO Y141 SAMON Y14 GOLDO Y19 MRE Y13 SIRAO Y139 NAVER
Aircraft B738/M-SDE2E3FGHIRWXY/LB1

Departure

Time 2026-05-09 06:44
Airport Fukuoka Airport (RJFF)

Arrival

Time N/A
Airport New Chitose Airport (RJCC)
Time Latitude Longitude Altitude Speed Heading
2026-05-09 06:10 33.60095 130.44469 24 ft 0 kts 60°
2026-05-09 06:34 33.60074 130.44427 26 ft 3 kts 59°
2026-05-09 06:34 33.60058 130.44404 28 ft 4 kts 26°
2026-05-09 06:34 33.60034 130.44397 29 ft 3 kts 355°
2026-05-09 06:34 33.60029 130.44398 28 ft 0 kts 354°
2026-05-09 06:37 33.60032 130.44402 29 ft 1 kts 39°
2026-05-09 06:37 33.60029 130.44409 28 ft 1 kts 120°
2026-05-09 06:37 33.60004 130.44430 26 ft 8 kts 144°
2026-05-09 06:37 33.59941 130.44474 24 ft 12 kts 150°
2026-05-09 06:38 33.59858 130.44531 26 ft 16 kts 149°
2026-05-09 06:38 33.59744 130.44610 26 ft 21 kts 150°
2026-05-09 06:38 33.59605 130.44704 27 ft 23 kts 151°
2026-05-09 06:38 33.59481 130.44789 27 ft 23 kts 152°
2026-05-09 06:39 33.59348 130.44850 25 ft 24 kts 171°
2026-05-09 06:39 33.59222 130.44869 25 ft 21 kts 161°
2026-05-09 06:39 33.59088 130.44955 29 ft 24 kts 149°
2026-05-09 06:39 33.58944 130.45063 27 ft 13 kts 150°
2026-05-09 06:40 33.58941 130.45065 26 ft 0 kts 150°
2026-05-09 06:41 33.58940 130.45065 26 ft 1 kts 150°
2026-05-09 06:41 33.58916 130.45081 28 ft 9 kts 153°
2026-05-09 06:41 33.58828 130.45138 29 ft 21 kts 150°
2026-05-09 06:42 33.58679 130.45236 27 ft 25 kts 150°
2026-05-09 06:42 33.58551 130.45323 28 ft 23 kts 149°
2026-05-09 06:42 33.58383 130.45434 31 ft 32 kts 150°
2026-05-09 06:42 33.58174 130.45576 32 ft 38 kts 153°
2026-05-09 06:43 33.58005 130.45691 35 ft 26 kts 152°
2026-05-09 06:43 33.57828 130.45823 40 ft 35 kts 148°
2026-05-09 06:43 33.57661 130.45903 43 ft 19 kts 197°
2026-05-09 06:43 33.57582 130.45764 43 ft 13 kts 274°
2026-05-09 06:44 33.57633 130.45717 39 ft 18 kts 330°
2026-05-09 06:44 33.57845 130.45573 40 ft 64 kts 330°
2026-05-09 06:44 33.58503 130.45130 38 ft 151 kts 332°
2026-05-09 06:44 33.59514 130.44470 795 ft 171 kts 333°
2026-05-09 06:45 33.60565 130.43755 1857 ft 178 kts 330°
2026-05-09 06:45 33.61601 130.43035 2902 ft 187 kts 329°
2026-05-09 06:45 33.62747 130.42244 3467 ft 207 kts 329°
2026-05-09 06:45 33.64068 130.41368 3704 ft 234 kts 336°
2026-05-09 06:46 33.65725 130.41142 3953 ft 260 kts 13°
2026-05-09 06:46 33.67267 130.42272 4516 ft 273 kts 50°
2026-05-09 06:46 33.68166 130.44169 5390 ft 275 kts 63°
2026-05-09 06:46 33.68935 130.46172 6253 ft 281 kts 73°
2026-05-09 06:47 33.68997 130.48364 7069 ft 286 kts 104°
2026-05-09 06:47 33.68159 130.50484 7964 ft 290 kts 128°
2026-05-09 06:47 33.66700 130.52043 8794 ft 294 kts 149°
2026-05-09 06:47 33.64959 130.53245 9598 ft 300 kts 152°
2026-05-09 06:48 33.63118 130.54351 10293 ft 307 kts 158°
2026-05-09 06:48 33.61105 130.55355 10555 ft 332 kts 160°
2026-05-09 06:48 33.58936 130.56388 10916 ft 350 kts 160°
2026-05-09 06:48 33.56671 130.57477 11592 ft 357 kts 159°
2026-05-09 06:49 33.54379 130.58600 12337 ft 362 kts 159°
2026-05-09 06:49 33.52070 130.59749 13084 ft 367 kts 159°
2026-05-09 06:49 33.49697 130.60938 13767 ft 375 kts 159°
2026-05-09 06:49 33.47298 130.62142 14403 ft 380 kts 159°
2026-05-09 06:50 33.44889 130.63396 15108 ft 384 kts 154°
2026-05-09 06:50 33.42797 130.65339 15761 ft 392 kts 132°
2026-05-09 06:50 33.41089 130.67824 16418 ft 396 kts 129°
2026-05-09 06:50 33.39368 130.70425 17030 ft 402 kts 129°
2026-05-09 06:51 33.37620 130.73039 17659 ft 407 kts 130°
2026-05-09 06:51 33.35847 130.75644 18283 ft 412 kts 130°
2026-05-09 06:51 33.34020 130.78304 18838 ft 417 kts 131°
2026-05-09 06:51 33.32173 130.80990 19386 ft 421 kts 131°
2026-05-09 06:52 33.30327 130.83676 19933 ft 426 kts 131°
2026-05-09 06:52 33.28451 130.86414 20480 ft 430 kts 132°
2026-05-09 06:52 33.26559 130.89198 21010 ft 435 kts 132°
2026-05-09 06:52 33.24648 130.92051 21546 ft 440 kts 132°
2026-05-09 06:53 33.22737 130.94942 22003 ft 446 kts 132°
2026-05-09 06:53 33.20821 130.97872 22518 ft 449 kts 132°
2026-05-09 06:53 33.18922 131.00810 23023 ft 453 kts 132°
2026-05-09 06:53 33.17002 131.03813 23491 ft 458 kts 132°
2026-05-09 06:54 33.15097 131.06820 23908 ft 462 kts 132°
2026-05-09 06:54 33.13172 131.09880 24344 ft 464 kts 132°
2026-05-09 06:54 33.11236 131.12976 24807 ft 466 kts 132°
2026-05-09 06:54 33.09305 131.16083 25249 ft 469 kts 132°
2026-05-09 06:55 33.07362 131.19226 25676 ft 472 kts 132°
2026-05-09 06:55 33.05418 131.22385 26093 ft 474 kts 132°
2026-05-09 06:55 33.03543 131.25446 26483 ft 477 kts 132°
2026-05-09 06:55 33.01585 131.28661 26880 ft 480 kts 131°
2026-05-09 06:56 32.99995 131.32158 27190 ft 495 kts 111°
2026-05-09 06:56 32.99418 131.36210 27545 ft 505 kts 90°
2026-05-09 06:56 32.99968 131.40339 27936 ft 505 kts 69°
2026-05-09 06:56 33.01529 131.43952 28267 ft 499 kts 48°
2026-05-09 06:57 33.03947 131.46785 28513 ft 488 kts 28°
2026-05-09 06:57 33.06689 131.48958 28805 ft 488 kts 26°
2026-05-09 06:57 33.09508 131.51199 29072 ft 493 kts 27°
2026-05-09 06:57 33.12302 131.53516 29342 ft 498 kts 28°
2026-05-09 06:58 33.15124 131.55883 29674 ft 501 kts 28°
2026-05-09 06:58 33.17961 131.58244 29960 ft 504 kts 28°
2026-05-09 06:58 33.20848 131.60613 30224 ft 507 kts 27°
2026-05-09 06:58 33.23697 131.62933 30443 ft 510 kts 27°
2026-05-09 06:59 33.26608 131.65300 30694 ft 512 kts 27°
2026-05-09 06:59 33.29563 131.67705 30959 ft 514 kts 27°
2026-05-09 06:59 33.32520 131.70118 31342 ft 514 kts 27°
2026-05-09 06:59 33.35442 131.72510 31792 ft 511 kts 28°
2026-05-09 07:00 33.38313 131.74863 32175 ft 510 kts 27°
2026-05-09 07:00 33.41203 131.77234 32495 ft 510 kts 28°
2026-05-09 07:00 33.44116 131.79620 32618 ft 516 kts 28°
2026-05-09 07:00 33.47091 131.82058 32800 ft 520 kts 28°
2026-05-09 07:01 33.50040 131.84483 33420 ft 513 kts 28°
2026-05-09 07:01 33.52945 131.86878 33914 ft 510 kts 28°
2026-05-09 07:01 33.55876 131.89292 34183 ft 511 kts 28°
2026-05-09 07:01 33.58817 131.91712 34354 ft 514 kts 28°
2026-05-09 07:02 33.61775 131.94148 34630 ft 514 kts 27°
2026-05-09 07:02 33.64706 131.96566 34992 ft 512 kts 27°
2026-05-09 07:02 33.67620 131.98974 35282 ft 511 kts 28°
2026-05-09 07:02 33.70549 132.01392 35358 ft 516 kts 28°
2026-05-09 07:03 33.73510 132.03836 35481 ft 520 kts 28°
2026-05-09 07:03 33.76490 132.06304 35841 ft 518 kts 27°
2026-05-09 07:03 33.79403 132.08723 36286 ft 513 kts 27°
2026-05-09 07:03 33.82316 132.11146 36715 ft 509 kts 27°
2026-05-09 07:04 33.85207 132.13549 37080 ft 505 kts 27°
2026-05-09 07:04 33.88101 132.15950 37105 ft 508 kts 27°
2026-05-09 07:04 33.93930 132.20794 37080 ft 508 kts 27°
2026-05-09 07:05 33.99742 132.25635 37089 ft 506 kts 27°
2026-05-09 07:05 34.05493 132.30434 37141 ft 505 kts 26°
2026-05-09 07:06 34.11252 132.35248 37100 ft 504 kts 26°
2026-05-09 07:06 34.17001 132.40062 37100 ft 504 kts 26°
2026-05-09 07:07 34.22738 132.44873 37101 ft 504 kts 26°
2026-05-09 07:07 34.28382 132.49615 37102 ft 504 kts 26°
2026-05-09 07:08 34.34032 132.54385 37133 ft 506 kts 27°
2026-05-09 07:08 34.39653 132.59146 37111 ft 507 kts 27°
2026-05-09 07:09 34.45370 132.63937 37098 ft 506 kts 26°
2026-05-09 07:09 34.51127 132.68781 37108 ft 508 kts 26°
2026-05-09 07:10 34.56895 132.73685 37099 ft 509 kts 26°
2026-05-09 07:10 34.62510 132.78529 37098 ft 509 kts 26°
2026-05-09 07:11 34.68372 132.83285 37095 ft 506 kts 26°
2026-05-09 07:11 34.74014 132.88168 37088 ft 507 kts 27°
2026-05-09 07:12 34.79697 132.93102 37101 ft 506 kts 26°
2026-05-09 07:12 34.85442 132.98014 37096 ft 506 kts 26°
2026-05-09 07:13 34.91109 133.03032 37090 ft 512 kts 32°
2026-05-09 07:13 34.96447 133.08739 37101 ft 515 kts 35°
2026-05-09 07:14 35.01706 133.14597 37159 ft 514 kts 35°
2026-05-09 07:14 35.07015 133.20444 37111 ft 514 kts 34°
2026-05-09 07:15 35.12348 133.26250 37101 ft 514 kts 34°
2026-05-09 07:15 35.17686 133.32045 37122 ft 514 kts 34°
2026-05-09 07:16 35.23024 133.37854 37102 ft 514 kts 34°
2026-05-09 07:16 35.28325 133.43639 37124 ft 514 kts 34°
2026-05-09 07:17 35.33646 133.49460 37124 ft 515 kts 34°
2026-05-09 07:17 35.38993 133.55319 37179 ft 516 kts 34°
2026-05-09 07:18 35.44320 133.61138 37116 ft 514 kts 33°
2026-05-09 07:18 35.49653 133.66960 37118 ft 513 kts 34°
2026-05-09 07:19 35.54940 133.72836 37137 ft 513 kts 34°
2026-05-09 07:19 35.60183 133.78647 37136 ft 512 kts 34°
2026-05-09 07:20 35.64606 133.83540 37132 ft 512 kts 34°
2026-05-09 07:20 35.69873 133.89371 37134 ft 511 kts 34°
2026-05-09 07:21 35.75126 133.95198 37119 ft 511 kts 34°
2026-05-09 07:21 35.80396 134.01055 37126 ft 511 kts 34°
2026-05-09 07:22 35.85671 134.06930 37126 ft 511 kts 34°
2026-05-09 07:22 35.90930 134.12799 37128 ft 511 kts 34°
2026-05-09 07:23 35.96194 134.18684 37128 ft 511 kts 34°
2026-05-09 07:23 36.01455 134.24577 37164 ft 511 kts 34°
2026-05-09 07:24 36.06695 134.30457 37128 ft 512 kts 34°
2026-05-09 07:24 36.11941 134.36356 37147 ft 512 kts 34°
2026-05-09 07:25 36.17174 134.42252 37126 ft 511 kts 34°
2026-05-09 07:25 36.22399 134.48161 37122 ft 512 kts 36°
2026-05-09 07:26 36.26899 134.55113 37127 ft 525 kts 54°
2026-05-09 07:26 36.30654 134.62876 37117 ft 525 kts 55°
2026-05-09 07:27 36.34364 134.70647 37125 ft 525 kts 55°
2026-05-09 07:27 36.38108 134.78354 37115 ft 524 kts 54°
2026-05-09 07:28 36.41902 134.86092 37112 ft 524 kts 54°
2026-05-09 07:28 36.45687 134.93819 37119 ft 525 kts 54°
2026-05-09 07:29 36.49486 135.01600 37112 ft 526 kts 54°
2026-05-09 07:29 36.53264 135.09364 37156 ft 527 kts 55°
2026-05-09 07:30 36.57014 135.17088 37116 ft 528 kts 55°
2026-05-09 07:30 36.60775 135.24855 37112 ft 529 kts 55°
2026-05-09 07:31 36.64557 135.32682 37112 ft 529 kts 55°
2026-05-09 07:31 36.68335 135.40518 37106 ft 530 kts 55°
2026-05-09 07:32 36.72093 135.48333 37131 ft 530 kts 55°
2026-05-09 07:32 36.75881 135.56226 37109 ft 530 kts 55°
2026-05-09 07:33 36.81525 135.68023 37101 ft 531 kts 55°
2026-05-09 07:34 36.85278 135.75890 37100 ft 531 kts 55°
2026-05-09 07:34 36.89011 135.83736 37100 ft 531 kts 55°
2026-05-09 07:35 36.92760 135.91634 37101 ft 530 kts 55°
2026-05-09 07:35 36.96521 135.99576 37103 ft 529 kts 56°
2026-05-09 07:36 37.00245 136.07455 37099 ft 529 kts 56°
2026-05-09 07:36 37.03961 136.15336 37108 ft 529 kts 56°
2026-05-09 07:37 37.07667 136.23219 37098 ft 528 kts 56°
2026-05-09 07:37 37.11395 136.31166 37098 ft 528 kts 56°
2026-05-09 07:38 37.15091 136.39065 37094 ft 528 kts 56°
2026-05-09 07:38 37.18787 136.46983 37092 ft 528 kts 56°
2026-05-09 07:39 37.22453 136.54853 37098 ft 529 kts 56°
2026-05-09 07:39 37.26151 136.62813 37096 ft 529 kts 56°
2026-05-09 07:40 37.29826 136.70744 37089 ft 529 kts 56°
2026-05-09 07:40 37.33516 136.78724 37091 ft 530 kts 56°
2026-05-09 07:41 37.37204 136.86723 37082 ft 531 kts 56°
2026-05-09 07:41 37.40892 136.94740 37094 ft 531 kts 56°
2026-05-09 07:42 37.44574 137.02760 37075 ft 531 kts 56°
2026-05-09 07:42 37.48240 137.10769 37077 ft 530 kts 56°
2026-05-09 07:43 37.51871 137.18720 37078 ft 530 kts 56°
2026-05-09 07:43 37.55520 137.26731 37066 ft 530 kts 57°
2026-05-09 07:44 37.59167 137.34754 37068 ft 529 kts 57°
2026-05-09 07:44 37.62788 137.42743 37069 ft 529 kts 57°
2026-05-09 07:45 37.66434 137.50806 37062 ft 528 kts 57°
2026-05-09 07:45 37.70074 137.58874 37075 ft 528 kts 57°
2026-05-09 07:46 37.73673 137.66873 37063 ft 528 kts 57°
2026-05-09 07:46 37.77285 137.74920 37057 ft 527 kts 57°
2026-05-09 07:47 37.80876 137.82940 37056 ft 527 kts 57°
2026-05-09 07:47 37.84462 137.90971 37055 ft 527 kts 57°
2026-05-09 07:48 37.88042 137.99008 37058 ft 528 kts 57°
2026-05-09 07:48 37.91650 138.07127 37052 ft 528 kts 57°
2026-05-09 07:49 37.95233 138.15209 37049 ft 528 kts 57°
2026-05-09 07:49 37.98822 138.23330 37063 ft 528 kts 57°
2026-05-09 07:50 38.02416 138.31478 37047 ft 529 kts 57°
2026-05-09 07:50 38.06358 138.39207 37037 ft 520 kts 43°
2026-05-09 07:51 38.11583 138.45295 37034 ft 503 kts 25°
2026-05-09 07:51 38.17448 138.50047 37047 ft 499 kts 24°
2026-05-09 07:52 38.23257 138.54693 37031 ft 499 kts 24°
2026-05-09 07:52 38.29112 138.59453 37019 ft 499 kts 24°
2026-05-09 07:53 38.34876 138.64195 37020 ft 498 kts 24°
2026-05-09 07:53 38.40668 138.68980 37032 ft 497 kts 24°
2026-05-09 07:54 38.46447 138.73760 37051 ft 497 kts 25°
2026-05-09 07:54 38.52177 138.78506 37018 ft 496 kts 25°
2026-05-09 07:55 38.57938 138.83287 37021 ft 495 kts 25°
2026-05-09 07:55 38.63689 138.88069 37008 ft 495 kts 25°
2026-05-09 07:56 38.69441 138.92860 37003 ft 494 kts 25°
2026-05-09 07:56 38.75187 138.97656 37024 ft 493 kts 25°
2026-05-09 07:57 38.80917 139.02447 37001 ft 493 kts 25°
2026-05-09 07:57 38.86654 139.07256 37013 ft 492 kts 25°
2026-05-09 07:58 38.92380 139.12063 36995 ft 491 kts 25°
2026-05-09 07:58 38.98086 139.16863 36990 ft 491 kts 25°
2026-05-09 07:59 39.03766 139.21651 37004 ft 490 kts 25°
2026-05-09 07:59 39.09441 139.26442 36994 ft 490 kts 26°
2026-05-09 08:00 39.15100 139.31232 36977 ft 489 kts 25°
2026-05-09 08:00 39.20720 139.35996 36992 ft 488 kts 26°
2026-05-09 08:01 39.26237 139.40682 36983 ft 488 kts 26°
2026-05-09 08:01 39.31905 139.45507 36975 ft 488 kts 26°
2026-05-09 08:02 39.37502 139.50280 36979 ft 487 kts 26°
2026-05-09 08:02 39.43154 139.55109 36975 ft 487 kts 26°
2026-05-09 08:03 39.48790 139.59934 36997 ft 487 kts 26°
2026-05-09 08:03 39.54425 139.64768 36977 ft 487 kts 26°
2026-05-09 08:04 39.59086 139.68773 36965 ft 488 kts 26°
2026-05-09 08:04 39.64746 139.73647 36976 ft 488 kts 26°
2026-05-09 08:05 39.70377 139.78506 36978 ft 488 kts 26°
2026-05-09 08:05 39.76026 139.83390 36963 ft 488 kts 26°
2026-05-09 08:06 39.81679 139.88286 36975 ft 488 kts 27°
2026-05-09 08:06 39.87274 139.93183 36962 ft 488 kts 27°
2026-05-09 08:07 39.92855 139.98099 36956 ft 488 kts 27°
2026-05-09 08:07 39.98411 140.03000 36974 ft 487 kts 27°
2026-05-09 08:08 40.03916 140.07860 36972 ft 488 kts 27°
2026-05-09 08:08 40.09396 140.12707 36938 ft 487 kts 27°
2026-05-09 08:09 40.14920 140.17603 36922 ft 487 kts 28°
2026-05-09 08:09 40.20316 140.22395 36910 ft 485 kts 28°
2026-05-09 08:10 40.25759 140.27238 36914 ft 485 kts 28°
2026-05-09 08:10 40.31250 140.32133 36914 ft 485 kts 28°
2026-05-09 08:11 40.36724 140.37015 36930 ft 485 kts 28°
2026-05-09 08:11 40.39397 140.39406 36707 ft 487 kts 28°
2026-05-09 08:11 40.42167 140.41892 36398 ft 480 kts 28°
2026-05-09 08:11 40.44740 140.44204 36015 ft 476 kts 28°
2026-05-09 08:12 40.49936 140.48872 35229 ft 471 kts 28°
2026-05-09 08:12 40.52494 140.51168 34848 ft 467 kts 28°
2026-05-09 08:12 40.55003 140.53427 34510 ft 464 kts 28°
2026-05-09 08:13 40.57612 140.55781 34171 ft 460 kts 28°
2026-05-09 08:13 40.60134 140.58056 33811 ft 457 kts 28°
2026-05-09 08:13 40.62639 140.60316 33449 ft 453 kts 28°
2026-05-09 08:13 40.65196 140.62624 32990 ft 451 kts 28°
2026-05-09 08:14 40.67586 140.64783 32679 ft 447 kts 29°
2026-05-09 08:14 40.70053 140.67018 32520 ft 438 kts 29°
2026-05-09 08:14 40.72495 140.69225 32245 ft 432 kts 28°
2026-05-09 08:14 40.74870 140.71051 31880 ft 423 kts 19°
2026-05-09 08:15 40.77427 140.72393 31519 ft 416 kts 14°
2026-05-09 08:15 40.80093 140.73646 31212 ft 411 kts 13°
2026-05-09 08:15 40.82770 140.74902 30850 ft 409 kts 14°
2026-05-09 08:15 40.85433 140.76187 30510 ft 406 kts 15°
2026-05-09 08:16 40.88002 140.77452 30208 ft 402 kts 15°
2026-05-09 08:16 40.90560 140.78720 29894 ft 398 kts 15°
2026-05-09 08:16 40.93052 140.79957 29518 ft 395 kts 15°
2026-05-09 08:16 40.95389 140.81115 29160 ft 392 kts 16°
2026-05-09 08:17 40.97789 140.82305 28841 ft 386 kts 16°
2026-05-09 08:17 41.00092 140.83447 28510 ft 382 kts 16°
2026-05-09 08:17 41.02400 140.84592 28118 ft 380 kts 16°
2026-05-09 08:17 41.04716 140.85741 27719 ft 377 kts 16°
2026-05-09 08:18 41.07078 140.86913 27346 ft 374 kts 16°
2026-05-09 08:18 41.09299 140.88018 27033 ft 371 kts 16°
2026-05-09 08:18 41.11516 140.89121 26688 ft 368 kts 16°
2026-05-09 08:18 41.13829 140.90272 26312 ft 366 kts 16°
2026-05-09 08:19 41.16104 140.91406 25957 ft 364 kts 16°
2026-05-09 08:19 41.18350 140.92530 25636 ft 360 kts 17°
2026-05-09 08:19 41.20663 140.93698 25257 ft 359 kts 17°
2026-05-09 08:19 41.22897 140.94876 24924 ft 355 kts 16°
2026-05-09 08:20 41.25167 140.95982 24673 ft 350 kts 12°
2026-05-09 08:20 41.27405 140.97017 24353 ft 345 kts 16°
2026-05-09 08:20 41.29548 140.98108 23990 ft 345 kts 17°
2026-05-09 08:20 41.31623 140.99163 23666 ft 342 kts 13°
2026-05-09 08:21 41.33799 141.00182 23236 ft 343 kts 14°
2026-05-09 08:21 41.35953 141.01242 22843 ft 340 kts 15°
2026-05-09 08:21 41.37946 141.02233 22522 ft 337 kts 14°
2026-05-09 08:21 41.40016 141.03258 22218 ft 334 kts 14°
2026-05-09 08:22 41.42132 141.04301 21878 ft 330 kts 14°
2026-05-09 08:22 41.44123 141.05279 21558 ft 327 kts 14°
2026-05-09 08:22 41.46119 141.06259 21253 ft 324 kts 14°
2026-05-09 08:22 41.48081 141.07227 21048 ft 319 kts 15°
2026-05-09 08:23 41.49951 141.08153 20726 ft 317 kts 15°
2026-05-09 08:23 41.51907 141.09121 20447 ft 314 kts 15°
2026-05-09 08:23 41.53780 141.10047 20140 ft 312 kts 15°
2026-05-09 08:23 41.55625 141.10959 19846 ft 310 kts 15°
2026-05-09 08:24 41.57464 141.11870 19543 ft 308 kts 15°
2026-05-09 08:24 41.59311 141.12786 19259 ft 306 kts 15°
2026-05-09 08:24 41.61027 141.13638 19005 ft 304 kts 15°
2026-05-09 08:24 41.62789 141.14513 18724 ft 303 kts 15°
2026-05-09 08:25 41.64625 141.15423 18428 ft 302 kts 15°
2026-05-09 08:25 41.66386 141.16298 18147 ft 300 kts 15°
2026-05-09 08:25 41.68286 141.17242 17797 ft 299 kts 15°
2026-05-09 08:25 41.70119 141.18161 17536 ft 295 kts 15°